Location: Azul
(36.7830°S, 59.8500°W)
Time: 12:29:28
(UTC-03:00)

ISS - Pass Details

Date: 18 February 2018
Orbit: 403 x 406 km, 51.6° (Epoch: 26 February)

Event Time Altitude Azimuth Distance (km) Brightness Sun altitude
Exits shadow 04:05:16 16° 177° (S) 1,189 -1.0 -27.0°
Maximum altitude 04:06:18 18° 153° (SSE) 1,103 -0.9 -26.8°
Drops below altitude 10° 04:08:41 10° 107° (ESE) 1,489 -0.1 -26.4°
Sets 04:11:15 0° 87° (E) 2,345 0.7 -26.1°
